Location: Eitze
(52.9840°N, 9.6894°E)
Time: 06:18:05
(UTC+00:00)

Landsat 5 - Pass Details

Date: 19 May 2025
Orbit: 510 x 610 km, 98.1° (Epoch: 22 June)

Event Time Altitude Azimuth Distance (km) Brightness Sun altitude
Rises 21:52:36 0° 21° (NNE) 2,810 7.7 -14.7°
Reaches altitude 10° 21:54:54 10° 30° (NNE) 1,922 6.6 -14.9°
Maximum altitude 21:58:45 35° 97° (E) 971 4.3 -15.1°
Enters shadow 22:00:27 25° 142° (SE) 1,219 4.5 -15.1°
